Weather in Zubki

Belarus     53°04′52″N   26°45′16″E
temp.,
°C
wind,
m/s
gust,
m/s
humid.,
%
clouds,
%
prec.,
mm/h
press.,
hPa
HPBL,
m
11 may, tue
tue1100:00+10se4128189 0.0 1023218
03:00+8se4118458 0.0 1024198
06:00+7se488085 0.0 1024138
09:00+12se5967100 0.0 1024388
12:00+16ese56514 0.0 10231001
15:00+18ese564729 0.0 10211216
18:00+17ese57575 0.0 1020815
21:00+12ese49755 0.0 1020130
12 may, wed
wed1200:00+10ese49889 0.0 1020143
03:00+10e410940 0.0 1019200
06:00+10ese5109958 0.0 1019286
09:00+12ese711731 0.0 1019772
12:00+14ese8106211 0.0 10191292
15:00+15ese710563 0.0 10171382
18:00+16ese5861100 0.0 10151711
21:00+10se33806 0.0 101437
13 may, thu
thu1300:00+8sw2385100 0.0 101226
03:00+8sw3585100 0.0 1010106
06:00+8ssw3592100 0.8 1009174
09:00+8s4794100 3.8 1008346
12:00+11sse6979100 1.7 10071148
15:00+11se51075100 1.9 1007463
18:00+11se51189100 0.8 1006721
21:00+10se61393100 1.0 1006563
14 may, fri
fri1400:00+10se6159393 1.0 1006556
03:00+10se6149652 1.3 1006452
06:00+10se51297100 0.0 1006506
09:00+12se61093100 0.0 1006656
12:00+12s4893100 0.3 1007474
15:00+17s577496 0.8 10071130
18:00+17s467728 0.9 1007702
21:00+13ssw2388100 2.0 100722
15 may, sat
sat1500:00+11wsw349110 0.0 100848
03:00+9wsw34957 0.0 100962
06:00+8wsw34955 0.0 100978
09:00+12sw458456 0.0 1009396
12:00+14wsw4476100 0.1 1010929
15:00+15wsw457299 0.4 1009920
18:00+13wsw468477 0.7 1010452
21:00+11wsw479399 1.1 1010308